Temp
12 12 12 12 12 12 13 13 13 13 13 12 12 12 12 12 12 12 13 13 13 12 12 12 12 12 12 13 13 13 13 13 13 13 13 13 13 13 13 13 13 13 13 13 13 12 12 12 12 12 12 12 11 12 12 12 12 12 12 12 12 12 12 12 12 12 12 11 11
12 12 12 12 12 12 13 13 13 12 12 12 12 12 12 12 12 12 12 12 12 12 12 12 12 12 12 12 12 12 12 13 13 13 13 13 13 13 13 13 13 13 13 12 12 12 12 12 12 12 11 11 11 11 11 12 12 12 12 12 12 12 12 12 12 12 11 11 12
12 12 11 12 12 12 12 12 12 12 12 12 12 12 12 12 12 12 12 12 12 11 11 11 11 11 12 12 12 12 12 13 13 13 13 13 13 13 13 13 13 13 13 12 12 12 12 12 12 12 11 11 11 11 11 12 12 12 12 12 12 12 12 12 12 12 12 12 12
12 12 12 11 12 12 12 12 12 12 12 12 12 12 12 12 12 12 12 12 11 11 11 11 11 11 11 12 12 12 12 12 13 13 13 13 13 13 13 13 13 13 12 12 11 11 12 12 11 11 11 11 11 12 12 12 12 12 12 12 11 12 12 12 12 12 12 12 12
12 12 12 12 12 11 12 12 12 12 12 12 12 12 12 12 13 13 12 12 11 11 11 11 11 11 11 12 12 12 12 12 13 13 13 13 13 13 12 12 12 12 12 12 11 11 11 12 11 11 11 11 11 12 12 12 12 11 11 11 12 12 12 12 12 12 12 12 12
12 12 12 12 11 11 12 11 11 11 11 11 11 12 12 12 12 13 13 12 12 11 11 11 11 11 11 11 11 11 12 12 12 13 13 13 13 12 12 12 12 12 12 12 12 12 12 12 11 11 11 11 11 12 12 12 11 11 11 11 12 12 12 12 12 12 12 12 12
11 11 11 11 11 11 11 11 11 11 11 11 11 11 11 12 12 12 12 12 12 12 12 11 11 11 11 11 11 11 11 11 12 12 12 13 12 12 12 12 12 12 12 12 12 12 12 11 11 11 11 10 11 11 12 11 11 12 12 12 12 12 12 12 12 12 12 11 11
11 11 11 11 11 11 11 11 11 11 11 11 11 11 11 11 12 12 12 12 12 12 11 11 11 11 10 10 11 11 11 11 11 11 11 12 12 12 12 12 12 12 12 12 12 12 12 11 11 11 10 10 11 11 11 11 11 12 12 12 12 12 12 12 12 12 12 11 11
11 11 11 11 11 11 11 11 11 11 11 11 11 11 11 11 11 12 11 11 11 11 11 11 11 11 11 11 11 11 11 11 11 11 11 11 11 12 12 12 12 12 11 11 11 11 12 12 11 11 11 11 11 11 11 11 11 12 12 12 12 12 12 12 12 12 11 11 11
11 11 11 11 11 11 11 11 11 11 11 11 11 11 11 11 11 11 11 11 11 11 11 11 11 11 11 11 11 11 12 12 11 11 11 11 11 11 11 12 12 12 11 11 11 11 11 11 11 11 11 11 11 11 11 11 11 12 12 12 12 12 12 12 12 11 11 11 11
11 11 11 12 12 12 12 12 12 12 11 11 11 11 11 11 11 11 11 11 11 11 11 11 11 11 11 11 11 11 11 12 12 11 11 11 11 11 11 11 11 11 11 11 11 11 11 11 11 11 11 11 11 11 11 11 11 11 11 11 11 12 11 11 11 11 11 11 11
11 11 11 11 12 12 12 12 11 11 11 11 11 11 11 11 11 11 11 11 11 11 11 11 11 11 11 11 11 11 11 11 11 11 11 11 11 11 11 11 11 11 11 11 11 11 11 11 11 11 11 11 11 11 11 11 11 10 10 11 11 11 11 11 11 11 11 11 11
11 11 11 11 11 11 11 11 11 11 11 11 11 11 11 11 11 11 11 11 11 11 11 11 11 11 11 11 11 11 11 11 11 11 11 11 11 11 11 11 10 10 11 11 11 11 11 11 11 11 11 11 11 11 10 10 10 10 10 10 11 11 11 11 11 11 11 11 11
11 11 11 10 10 10 10 10 10 10 10 10 11 11 11 11 11 11 11 11 11 11 10 11 11 11 12 12 12 12 12 12 12 12 11 11 11 11 11 11 11 10 11 11 11 11 11 11 10 10 11 11 11 10 10 10 10 10 10 10 11 11 11 11 11 11 11 10 10
11 11 11 10 10 10 10 10 10 10 10 11 11 11 11 11 11 11 11 11 11 10 10 10 11 11 12 12 12 12 12 12 12 12 11 11 11 11 10 10 10 10 10 11 11 11 11 10 10 10 10 11 10 10 10 10 10 10 10 10 11 11 11 11 11 11 10 10 10
10 11 11 11 11 11 11 11 11 11 11 11 11 11 11 11 11 11 11 11 11 11 11 11 11 12 12 12 12 12 12 12 12 11 11 11 11 10 10 10 10 10 10 10 10 10 10 10 10 10 10 10 10 10 10 10 10 10 10 10 10 11 11 11 11 10 10 10 10
10 11 11 11 11 11 11 11 11 12 11 11 11 11 10 10 11 11 11 11 11 11 11 11 12 12 12 12 12 12 12 12 11 11 11 10 10 10 10 10 10 10 10 10 10 10 10 10 10 10 10 10 10 10 10 10 9 9 10 10 10 11 11 11 11 10 10 10 10
10 11 11 11 11 11 11 11 11 11 11 10 10 10 10 10 10 10 11 11 11 11 11 12 12 12 12 12 12 12 11 11 11 11 10 10 10 10 10 10 10 10 10 10 10 10 10 10 10 10 10 10 10 10 10 9 9 9 10 10 10 11 11 11 11 10 10 10 11
11 11 11 11 11 11 11 11 11 10 10 10 10 10 10 10 10 10 10 11 11 11 11 11 12 12 11 11 11 11 11 10 10 10 10 10 10 10 10 10 10 10 10 10 10 10 10 10 10 10 10 10 10 10 9 9 9 10 10 10 10 11 11 11 11 11 11 11 11
11 11 11 11 11 11 11 11 11 11 10 10 10 10 10 10 10 10 10 10 11 11 11 11 11 11 11 11 11 10 10 10 10 10 10 10 10 10 10 10 10 10 10 10 10 10 10 10 10 10 10 9 10 10 10 10 10 10 10 10 10 11 11 11 11 11 11 11 11
11 11 11 11 11 11 11 11 11 11 11 11 10 10 10 10 10 10 10 10 10 10 10 11 11 11 11 10 10 10 10 10 10 10 10 10 10 10 10 10 10 10 10 10 10 10 10 10 9 9 9 9 10 10 10 10 10 10 10 10 10 11 11 11 11 11 11 11 11
11 10 11 11 11 11 11 10 10 10 10 10 10 10 10 10 10 10 10 10 10 10 10 10 10 10 10 10 10 10 10 10 10 10 10 10 10 10 10 9 9 9 10 10 10 9 9 9 9 9 9 10 10 10 10 9 9 10 10 10 11 11 11 11 11 11 11 11 11
10 10 10 10 10 10 10 10 10 10 10 10 10 10 10 10 10 10 10 10 10 10 10 10 10 10 10 10 10 10 10 10 10 10 10 10 10 10 9 9 9 9 9 9 9 9 9 9 9 9 9 9 9 9 9 9 10 10 10 11 11 11 11 11 11 11 10 10 10
10 10 10 10 10 10 10 10 10 10 10 10 10 10 10 10 10 10 10 10 10 10 10 10 10 10 10 10 10 10 10 10 10 10 10 9 9 9 9 9 9 9 9 9 9 9 9 9 9 9 9 9 8 8 9 9 10 10 10 10 10 10 10 10 10 10 10 10 9
10 10 10 10 10 10 10 10 10 10 10 10 10 10 10 10 10 10 10 10 10 10 10 10 10 10 10 10 9 9 9 9 9 9 9 9 9 9 9 9 9 9 9 9 9 9 9 9 9 9 8 8 8 8 9 9 10 10 10 10 10 10 10 9 9 9 9 9 9
10 10 10 10 10 10 10 10 10 10 10 10 10 10 10 10 10 10 10 10 10 9 9 9 9 9 9 9 9 9 9 9 9 9 9 9 9 9 9 9 9 9 9 9 10 9 9 9 9 9 8 8 8 9 9 9 9 9 9 9 9 9 9 9 9 9 9 8 8
10 10 9 9 9 10 10 10 10 10 10 10 10 10 10 10 10 10 10 9 9 9 9 9 9 9 9 9 9 9 9 9 9 9 9 9 9 9 9 9 9 9 9 9 9 9 9 9 9 9 9 9 9 9 9 9 9 9 9 9 9 9 9 9 9 8 8 8 8
9 9 9 9 9 9 9 9 9 10 10 10 10 10 10 10 9 9 9 9 9 9 9 9 9 9 9 9 9 9 9 9 9 9 9 9 9 9 9 9 9 9 9 9 9 9 9 9 9 9 9 9 9 9 9 9 9 9 9 9 9 9 8 8 8 8 8 8 8
9 9 9 9 9 9 9 9 9 9 9 9 9 9 9 9 9 9 9 9 9 9 9 9 9 9 9 9 9 9 9 9 9 9 9 9 9 9 9 9 9 9 9 9 9 9 9 9 9 9 9 9 9 9 9 9 9 9 8 8 8 8 7 7 7 7 7 7 7
9 9 9 9 9 9 9 9 9 9 9 9 9 9 9 9 9 8 8 8 8 8 8 9 9 9 9 9 9 9 9 9 9 9 9 9 9 9 9 9 8 8 8 9 9 9 9 9 9 9 9 8 8 8 8 8 8 8 8 7 7 7 7 7 7 7 7 7 7
9 9 9 9 9 9 9 9 9 9 8 8 8 8 8 8 8 8 8 8 8 8 8 8 8 8 8 8 8 8 8 8 8 8 8 8 8 8 8 8 8 8 8 9 9 9 9 9 9 8 8 8 8 8 8 7 7 7 7 7 7 6 6 6 6 6 6 6 6
9 9 9 9 9 9 9 8 8 8 8 8 8 8 8 8 8 8 8 8 8 8 8 8 8 8 8 8 8 8 8 8 8 8 8 8 8 8 8 8 8 8 8 9 9 9 9 9 9 8 8 8 7 7 7 7 7 7 6 6 6 6 6 6 6 6 6 6 6
9 9 9 8 8 8 8 8 8 8 8 8 8 8 8 8 8 8 8 8 8 8 8 8 8 8 8 8 8 8 8 8 8 8 8 8 8 8 8 8 8 8 9 9 9 9 9 9 8 8 8 7 7 7 7 7 6 6 6 6 6 6 6 6 6 6 6 5 5
8 8 8 8 8 8 8 8 7 7 7 7 7 7 7 7 7 7 7 7 7 8 8 8 8 8 8 8 8 8 8 8 8 8 8 8 8 8 8 8 8 9 9 9 9 9 8 8 8 8 7 7 7 6 6 6 6 6 6 6 6 6 5 5 5 5 5 5 5
8 8 8 8 8 7 7 7 7 7 7 7 7 7 7 7 7 7 7 7 8 8 8 8 8 8 8 8 8 8 8 8 8 8 8 8 8 8 8 8 8 8 8 8 8 8 8 8 7 7 6 6 6 6 6 6 6 6 6 6 5 5 5 5 5 5 5 5 5
7 7 7 7 7 7 7 7 7 7 7 7 7 7 7 7 7 8 8 8 8 8 8 8 8 8 8 8 8 8 8 8 8 8 8 8 8 8 8 8 8 8 8 8 7 7 7 7 7 6 6 6 6 6 6 6 6 6 5 5 5 5 5 5 5 5 5 5 4
7 7 7 7 7 7 6 6 6 7 7 7 7 7 7 7 7 8 8 8 8 8 8 8 8 8 8 8 8 8 8 8 8 8 8 8 8 8 8 8 7 7 7 7 7 7 6 6 6 6 6 6 6 6 6 5 5 5 5 5 5 5 5 5 5 4 4 4 4
6 6 6 6 6 6 6 6 6 6 6 7 7 7 7 7 7 7 7 7 7 8 8 8 8 8 8 8 8 8 8 8 8 8 8 8 7 7 7 7 7 7 6 6 6 6 6 6 6 6 6 5 5 5 5 5 5 5 5 5 5 5 4 4 4 4 4 4 4
6 6 6 6 6 6 6 6 6 6 6 6 7 7 7 7 7 7 7 7 7 7 8 8 8 8 8 8 8 8 8 7 7 7 7 7 7 7 7 7 6 6 6 6 6 6 6 6 6 6 5 5 5 5 5 5 5 5 4 4 4 4 4 4 4 4 4 4 4
6 6 6 6 6 6 6 6 6 6 6 6 6 7 7 7 7 7 7 7 7 7 8 8 8 8 8 8 8 8 8 7 7 7 7 7 7 7 7 6 6 6 6 6 6 6 6 6 6 6 5 5 5 5 5 5 5 4 4 4 4 4 4 4 4 4 4 4 4
6 6 6 6 6 6 6 6 6 6 6 6 6 6 7 7 7 7 7 7 7 7 7 8 8 8 8 8 8 8 8 8 7 7 7 7 7 7 6 6 6 6 6 6 6 6 6 6 6 6 5 5 5 5 5 4 4 4 4 4 3 3 3 3 3 3 3 3 3
Height
1452 1454 1456 1458 1459 1461 1463 1464 1466 1467 1467 1468 1469 1470 1471 1472 1474 1476 1478 1479 1481 1483 1484 1485 1486 1487 1488 1489 1489 1491 1492 1493 1495 1496 1498 1499 1501 1502 1503 1504 1505 1506 1507 1509 1510 1511 1512 1514 1516 1518 1519 1520 1521 1522 1522 1522 1522 1522 1522 1522 1522 1522 1522 1522 1522 1523 1524 1524 1525
1452 1453 1455 1457 1458 1460 1462 1463 1464 1466 1467 1468 1468 1470 1471 1472 1473 1474 1476 1478 1480 1482 1483 1484 1485 1486 1488 1489 1489 1490 1490 1492 1493 1495 1496 1498 1499 1501 1502 1503 1503 1504 1506 1508 1509 1510 1511 1513 1515 1517 1518 1520 1521 1521 1521 1521 1522 1522 1522 1522 1521 1521 1521 1520 1521 1522 1523 1524 1524
1451 1453 1454 1456 1457 1459 1460 1462 1463 1464 1465 1467 1468 1469 1471 1472 1473 1474 1475 1477 1479 1481 1483 1484 1485 1487 1488 1490 1491 1490 1490 1491 1492 1493 1495 1496 1498 1499 1500 1501 1502 1503 1505 1507 1508 1509 1510 1512 1514 1517 1518 1519 1520 1520 1520 1521 1521 1521 1521 1521 1520 1520 1519 1519 1520 1521 1522 1523 1524
1451 1452 1453 1455 1456 1458 1459 1460 1462 1463 1464 1465 1467 1468 1469 1471 1472 1473 1474 1476 1478 1479 1481 1483 1485 1487 1489 1491 1491 1491 1491 1490 1490 1491 1493 1495 1496 1498 1499 1500 1502 1503 1504 1506 1507 1508 1509 1511 1514 1516 1518 1518 1518 1519 1520 1520 1520 1520 1520 1520 1520 1519 1519 1519 1519 1520 1521 1522 1523
1450 1451 1453 1454 1456 1458 1459 1459 1460 1461 1463 1464 1465 1467 1468 1469 1471 1473 1474 1475 1476 1478 1480 1482 1484 1486 1489 1491 1492 1492 1491 1489 1489 1490 1491 1493 1494 1497 1498 1500 1501 1503 1504 1506 1507 1508 1509 1511 1513 1515 1516 1517 1517 1518 1519 1519 1520 1520 1520 1520 1519 1519 1518 1519 1519 1520 1521 1521 1522
1449 1451 1452 1453 1455 1457 1458 1458 1458 1459 1461 1463 1464 1465 1467 1468 1470 1471 1473 1474 1475 1477 1479 1481 1483 1486 1488 1490 1491 1490 1489 1488 1488 1488 1489 1491 1493 1495 1497 1499 1500 1501 1503 1505 1506 1508 1510 1512 1513 1514 1515 1515 1516 1517 1518 1519 1519 1519 1519 1519 1519 1518 1518 1518 1519 1519 1520 1520 1520
1448 1450 1452 1453 1454 1456 1457 1457 1457 1458 1460 1461 1463 1464 1466 1468 1469 1470 1471 1473 1474 1477 1478 1480 1482 1484 1486 1488 1488 1488 1486 1486 1486 1487 1488 1489 1492 1494 1496 1497 1498 1499 1501 1503 1505 1508 1510 1512 1513 1514 1514 1514 1515 1516 1518 1518 1518 1518 1518 1518 1518 1518 1518 1518 1518 1518 1519 1519 1519
1447 1449 1450 1452 1453 1454 1455 1455 1456 1458 1459 1460 1462 1463 1465 1467 1468 1469 1470 1472 1474 1476 1478 1480 1481 1483 1483 1484 1485 1484 1484 1484 1485 1486 1488 1489 1491 1493 1494 1495 1496 1498 1500 1503 1505 1507 1509 1511 1513 1513 1513 1514 1514 1516 1517 1517 1517 1517 1517 1517 1517 1517 1517 1517 1517 1518 1518 1518 1518
1445 1447 1448 1450 1451 1452 1453 1454 1455 1457 1458 1460 1461 1463 1464 1466 1467 1468 1470 1472 1473 1475 1477 1478 1480 1481 1481 1482 1482 1482 1482 1483 1484 1485 1487 1488 1489 1491 1493 1494 1496 1497 1500 1502 1505 1507 1509 1510 1512 1512 1513 1513 1514 1515 1516 1517 1517 1516 1516 1516 1516 1516 1516 1516 1516 1516 1517 1517 1517
1444 1445 1447 1448 1449 1450 1451 1453 1454 1456 1458 1460 1462 1464 1465 1465 1466 1468 1469 1471 1473 1474 1476 1477 1478 1478 1478 1479 1480 1481 1481 1482 1483 1485 1486 1488 1488 1489 1491 1492 1494 1496 1498 1501 1504 1506 1508 1509 1510 1511 1512 1513 1514 1515 1516 1516 1516 1515 1515 1515 1514 1514 1514 1515 1515 1515 1515 1515 1516
1443 1444 1445 1447 1448 1449 1451 1453 1455 1458 1460 1462 1464 1465 1465 1466 1466 1467 1468 1470 1471 1473 1474 1475 1475 1474 1475 1476 1478 1479 1480 1482 1483 1485 1486 1487 1488 1488 1489 1490 1491 1493 1496 1499 1503 1505 1507 1508 1508 1510 1511 1512 1513 1514 1514 1514 1513 1513 1513 1512 1512 1513 1513 1513 1513 1513 1514 1514 1514
1443 1443 1445 1447 1448 1450 1453 1455 1457 1459 1461 1463 1464 1465 1465 1465 1466 1467 1468 1468 1469 1470 1472 1472 1472 1471 1472 1473 1476 1478 1479 1481 1482 1484 1485 1486 1486 1487 1487 1488 1489 1491 1493 1495 1499 1503 1505 1506 1506 1508 1509 1511 1512 1512 1512 1512 1511 1511 1511 1511 1511 1511 1511 1512 1512 1512 1513 1513 1513
1443 1444 1446 1447 1449 1451 1453 1455 1457 1459 1460 1462 1463 1463 1464 1465 1466 1467 1467 1468 1468 1468 1470 1470 1470 1470 1471 1472 1474 1476 1478 1480 1481 1482 1483 1483 1484 1484 1485 1486 1487 1489 1490 1492 1496 1500 1503 1504 1504 1506 1508 1509 1510 1510 1509 1509 1509 1509 1509 1509 1509 1510 1510 1510 1511 1511 1512 1512 1512
1444 1445 1447 1448 1450 1451 1453 1454 1456 1458 1459 1460 1461 1462 1463 1464 1465 1466 1466 1467 1467 1467 1468 1468 1468 1468 1469 1470 1472 1475 1478 1481 1482 1482 1482 1483 1483 1483 1483 1484 1485 1486 1488 1489 1493 1497 1499 1501 1502 1504 1506 1507 1507 1507 1508 1508 1508 1508 1508 1508 1508 1508 1508 1509 1509 1510 1510 1511 1511
1446 1447 1448 1449 1450 1452 1453 1454 1455 1457 1458 1459 1460 1461 1462 1463 1463 1464 1465 1465 1465 1466 1466 1466 1466 1466 1466 1468 1471 1476 1480 1483 1483 1483 1482 1482 1482 1482 1483 1483 1483 1484 1485 1487 1490 1493 1496 1498 1500 1502 1503 1504 1505 1505 1506 1507 1507 1507 1507 1507 1507 1507 1507 1508 1508 1508 1509 1509 1509
1447 1448 1449 1450 1451 1452 1453 1453 1454 1456 1457 1458 1458 1459 1460 1461 1462 1463 1463 1464 1464 1465 1465 1465 1465 1464 1465 1467 1472 1477 1481 1482 1482 1482 1482 1482 1482 1482 1482 1482 1483 1483 1484 1486 1488 1491 1494 1496 1498 1499 1501 1502 1503 1504 1504 1505 1505 1505 1505 1505 1505 1505 1506 1506 1506 1507 1507 1508 1508
1448 1449 1450 1450 1451 1452 1453 1453 1454 1455 1456 1457 1457 1458 1459 1460 1461 1462 1462 1463 1463 1463 1463 1463 1463 1463 1464 1467 1472 1476 1478 1479 1480 1480 1480 1481 1481 1481 1481 1482 1482 1483 1484 1486 1488 1490 1492 1494 1496 1498 1499 1500 1501 1502 1503 1503 1503 1503 1503 1503 1504 1504 1504 1504 1505 1505 1506 1506 1507
1449 1450 1450 1451 1451 1452 1452 1453 1454 1455 1455 1456 1457 1458 1459 1459 1460 1461 1461 1462 1462 1463 1463 1463 1463 1464 1465 1468 1471 1473 1476 1477 1478 1478 1479 1480 1480 1481 1481 1482 1482 1483 1484 1486 1487 1489 1491 1493 1494 1496 1497 1498 1499 1500 1500 1501 1502 1502 1502 1502 1502 1503 1503 1503 1503 1504 1504 1504 1504
1448 1449 1450 1450 1451 1452 1452 1453 1453 1454 1455 1456 1457 1458 1458 1459 1459 1460 1461 1461 1461 1462 1462 1462 1463 1464 1466 1468 1470 1472 1473 1475 1476 1477 1478 1479 1479 1480 1481 1481 1482 1483 1484 1486 1487 1488 1490 1492 1493 1494 1495 1496 1497 1498 1499 1499 1500 1500 1500 1500 1501 1501 1501 1501 1502 1502 1503 1503 1503
1448 1448 1449 1450 1450 1451 1451 1452 1453 1453 1454 1455 1456 1457 1457 1458 1459 1459 1460 1460 1461 1461 1462 1463 1463 1464 1466 1467 1469 1471 1472 1473 1475 1476 1477 1478 1478 1479 1480 1481 1482 1483 1484 1486 1487 1488 1489 1491 1492 1493 1493 1494 1495 1496 1497 1497 1498 1498 1498 1499 1499 1499 1499 1500 1500 1500 1500 1500 1500
1447 1448 1448 1448 1449 1449 1450 1451 1452 1452 1453 1454 1455 1456 1457 1458 1458 1459 1459 1460 1460 1461 1462 1463 1463 1464 1466 1467 1468 1470 1471 1472 1474 1475 1476 1477 1478 1478 1479 1480 1481 1483 1484 1485 1486 1487 1488 1489 1490 1491 1492 1493 1494 1494 1495 1495 1496 1496 1497 1497 1497 1498 1498 1498 1498 1498 1498 1499 1499
1445 1446 1447 1447 1448 1448 1449 1449 1450 1451 1452 1453 1454 1455 1456 1457 1458 1458 1459 1459 1460 1461 1462 1463 1463 1464 1466 1467 1468 1469 1470 1472 1473 1474 1475 1476 1477 1477 1478 1479 1480 1482 1483 1484 1485 1486 1487 1488 1489 1490 1491 1491 1492 1493 1493 1493 1494 1495 1495 1496 1496 1496 1497 1497 1497 1497 1497 1497 1497
1443 1444 1445 1446 1446 1447 1448 1448 1449 1450 1451 1452 1453 1454 1455 1456 1457 1458 1458 1459 1460 1460 1461 1462 1463 1464 1465 1466 1467 1468 1469 1470 1472 1473 1473 1474 1475 1476 1477 1478 1479 1481 1482 1483 1484 1485 1486 1487 1488 1488 1489 1489 1490 1491 1491 1492 1493 1493 1494 1494 1494 1495 1495 1495 1495 1496 1496 1496 1496
1442 1443 1444 1445 1445 1446 1447 1448 1448 1449 1451 1452 1453 1454 1455 1456 1457 1458 1458 1459 1459 1460 1461 1461 1462 1463 1464 1466 1467 1468 1469 1470 1471 1472 1473 1473 1474 1475 1477 1478 1478 1480 1481 1482 1483 1483 1484 1485 1486 1486 1487 1488 1488 1489 1490 1491 1491 1492 1492 1493 1493 1493 1494 1494 1494 1494 1494 1494 1494
1442 1443 1444 1444 1445 1446 1447 1447 1448 1449 1450 1451 1453 1453 1454 1455 1456 1457 1458 1458 1459 1460 1460 1461 1462 1463 1464 1465 1467 1468 1469 1469 1470 1471 1472 1473 1474 1475 1476 1477 1478 1478 1479 1480 1481 1482 1483 1483 1484 1485 1485 1486 1487 1488 1488 1489 1490 1490 1491 1491 1492 1492 1492 1492 1492 1492 1492 1492 1492
1442 1443 1443 1444 1445 1446 1447 1447 1448 1449 1450 1451 1452 1453 1454 1455 1455 1456 1457 1458 1458 1459 1460 1461 1462 1463 1464 1465 1466 1467 1468 1469 1470 1471 1472 1472 1473 1474 1475 1476 1476 1477 1478 1479 1480 1481 1481 1482 1483 1484 1485 1485 1486 1487 1488 1488 1489 1489 1490 1490 1490 1490 1490 1490 1490 1490 1490 1490 1490
1441 1442 1443 1444 1445 1446 1447 1447 1448 1448 1449 1450 1451 1452 1453 1454 1455 1456 1457 1458 1458 1459 1460 1461 1462 1463 1463 1464 1466 1467 1468 1468 1469 1470 1471 1472 1473 1473 1474 1475 1475 1476 1477 1478 1479 1480 1480 1481 1482 1483 1484 1485 1486 1487 1487 1488 1488 1488 1488 1488 1488 1488 1488 1488 1488 1488 1488 1488 1488
1442 1443 1443 1444 1445 1446 1447 1447 1448 1448 1449 1450 1450 1451 1452 1453 1454 1455 1456 1457 1458 1459 1460 1461 1462 1463 1463 1464 1465 1466 1467 1468 1469 1470 1470 1471 1472 1472 1473 1474 1474 1475 1476 1477 1478 1478 1479 1481 1482 1483 1483 1484 1485 1485 1486 1486 1487 1487 1487 1487 1487 1487 1487 1487 1487 1487 1487 1488 1488
1443 1443 1444 1444 1445 1446 1446 1447 1447 1448 1449 1449 1450 1451 1452 1453 1454 1455 1456 1457 1458 1459 1459 1460 1461 1462 1463 1464 1465 1465 1466 1467 1468 1469 1470 1470 1471 1472 1472 1473 1473 1474 1475 1476 1477 1478 1479 1480 1481 1482 1483 1483 1484 1484 1485 1485 1485 1485 1486 1486 1486 1486 1486 1486 1486 1486 1487 1487 1487
1443 1444 1444 1445 1445 1446 1446 1447 1447 1448 1448 1449 1450 1451 1452 1453 1454 1455 1457 1457 1458 1459 1460 1460 1461 1462 1463 1463 1464 1465 1466 1467 1468 1468 1469 1470 1470 1471 1472 1472 1473 1473 1474 1475 1476 1477 1478 1479 1480 1481 1482 1482 1482 1483 1483 1483 1484 1484 1484 1484 1484 1484 1485 1485 1485 1486 1486 1486 1486
1443 1444 1445 1445 1445 1446 1446 1447 1447 1448 1449 1450 1450 1451 1453 1453 1454 1456 1457 1457 1458 1459 1459 1460 1461 1462 1463 1463 1464 1465 1466 1466 1467 1468 1469 1470 1470 1471 1471 1472 1472 1473 1473 1474 1475 1477 1478 1478 1479 1480 1480 1480 1481 1481 1481 1482 1482 1483 1483 1483 1483 1483 1484 1484 1484 1485 1485 1485 1485
1443 1444 1445 1445 1446 1446 1447 1447 1448 1448 1449 1450 1451 1451 1452 1453 1454 1455 1456 1457 1458 1458 1459 1460 1461 1461 1462 1463 1464 1465 1466 1466 1467 1468 1469 1469 1470 1470 1471 1471 1472 1472 1473 1473 1474 1475 1476 1477 1478 1478 1478 1478 1479 1479 1480 1480 1481 1481 1481 1482 1482 1483 1483 1483 1483 1483 1484 1484 1484
1444 1444 1445 1445 1446 1447 1447 1448 1448 1449 1449 1450 1451 1451 1452 1453 1454 1455 1456 1457 1458 1458 1459 1460 1461 1462 1462 1463 1464 1465 1465 1466 1467 1468 1468 1469 1469 1469 1470 1470 1471 1471 1472 1473 1473 1474 1475 1476 1476 1477 1477 1477 1478 1478 1478 1479 1479 1480 1480 1481 1481 1482 1482 1482 1482 1483 1483 1483 1483
1445 1445 1445 1446 1446 1447 1448 1448 1449 1449 1450 1450 1451 1452 1452 1453 1454 1454 1455 1456 1457 1458 1459 1459 1460 1461 1462 1463 1463 1464 1464 1465 1466 1467 1467 1468 1468 1469 1469 1470 1470 1471 1472 1472 1473 1473 1474 1475 1475 1475 1476 1476 1476 1477 1477 1478 1478 1479 1479 1480 1480 1481 1481 1481 1481 1481 1481 1481 1482
1446 1446 1447 1447 1448 1448 1448 1449 1449 1450 1450 1451 1451 1452 1452 1453 1453 1454 1455 1456 1457 1458 1458 1459 1460 1460 1461 1462 1463 1463 1464 1464 1465 1466 1467 1467 1468 1468 1468 1469 1470 1470 1471 1472 1472 1473 1473 1473 1474 1474 1475 1475 1475 1476 1476 1477 1478 1478 1478 1479 1479 1479 1480 1480 1480 1480 1480 1480 1480
1447 1448 1448 1448 1448 1449 1449 1449 1450 1450 1451 1451 1451 1452 1452 1453 1453 1454 1455 1455 1456 1457 1458 1458 1459 1460 1460 1461 1462 1462 1463 1464 1464 1465 1466 1466 1467 1468 1468 1468 1469 1470 1470 1471 1471 1472 1472 1473 1473 1473 1473 1474 1474 1475 1475 1476 1476 1477 1477 1478 1478 1478 1478 1478 1479 1479 1479 1479 1479
1448 1448 1448 1449 1449 1449 1449 1450 1450 1450 1450 1451 1451 1451 1452 1452 1453 1453 1454 1455 1456 1456 1457 1458 1458 1459 1460 1460 1461 1462 1463 1463 1464 1465 1465 1466 1466 1467 1467 1468 1468 1469 1469 1469 1470 1470 1471 1471 1472 1472 1473 1473 1473 1473 1474 1474 1475 1475 1476 1476 1477 1477 1477 1477 1478 1478 1478 1478 1478
1448 1448 1449 1449 1449 1449 1449 1449 1450 1450 1450 1450 1451 1451 1451 1452 1452 1453 1454 1454 1455 1456 1456 1457 1458 1458 1459 1460 1460 1461 1462 1463 1463 1464 1464 1465 1466 1466 1467 1467 1467 1468 1468 1468 1468 1469 1469 1470 1471 1471 1471 1472 1472 1472 1472 1473 1473 1474 1474 1475 1475 1476 1476 1476 1476 1477 1477 1477 1477
1448 1448 1449 1449 1449 1449 1449 1449 1449 1450 1450 1450 1450 1450 1451 1451 1452 1452 1453 1454 1454 1455 1456 1456 1457 1458 1458 1459 1460 1461 1461 1462 1463 1463 1463 1464 1464 1465 1465 1466 1466 1467 1467 1467 1468 1468 1468 1469 1469 1470 1470 1470 1470 1471 1471 1472 1472 1473 1473 1473 1474 1474 1474 1475 1475 1475 1476 1476 1476
1448 1449 1449 1449 1449 1449 1449 1449 1449 1449 1450 1450 1450 1450 1450 1451 1451 1452 1453 1453 1454 1454 1455 1456 1456 1457 1458 1458 1459 1460 1460 1461 1461 1462 1462 1463 1463 1464 1464 1465 1465 1465 1466 1466 1466 1467 1467 1467 1468 1468 1468 1469 1469 1469 1470 1470 1471 1471 1472 1472 1473 1473 1473 1473 1474 1474 1474 1475 1475
1448 1449 1449 1449 1449 1449 1449 1449 1449 1449 1449 1449 1450 1450 1450 1450 1451 1451 1452 1453 1453 1454 1455 1455 1456 1456 1457 1458 1458 1458 1459 1459 1460 1460 1461 1461 1462 1462 1463 1463 1464 1464 1464 1465 1465 1465 1466 1466 1467 1467 1468 1468 1468 1468 1469 1469 1470 1470 1471 1471 1471 1472 1472 1472 1473 1473 1473 1473 1474
Wind_Speed
31 29 28 27 27 27 26 24 24 23 22 21 20 19 20 22 23 22 21 20 19 18 18 18 19 20 20 20 20 19 18 17 16 16 15 15 16 17 18 19 19 19 19 17 16 15 14 14 14 15 17 18 19 17 15 15 16 16 17 17 17 17 17 16 15 15 15 15 15
36 32 29 27 27 28 28 27 26 23 21 19 18 18 18 20 21 21 20 19 16 13 12 12 13 13 13 13 14 14 14 13 13 12 13 14 15 16 17 18 18 18 18 16 14 14 14 15 15 17 19 20 17 14 14 15 16 16 16 16 17 17 16 15 14 15 16 16 15
41 36 31 27 27 27 28 27 26 24 22 19 18 18 19 20 21 20 19 16 12 9 7 7 8 8 9 10 12 13 13 11 10 10 11 12 14 14 15 16 16 17 16 14 13 13 13 14 16 17 19 18 15 14 15 17 17 17 17 17 18 17 16 15 16 16 16 16 16
44 41 36 31 28 26 25 25 26 25 23 21 19 19 19 20 22 21 19 15 12 11 10 9 7 7 9 10 12 13 13 11 10 9 9 10 11 11 12 12 13 14 14 13 12 12 13 14 16 17 17 17 16 16 18 19 19 19 18 19 18 17 16 15 15 15 15 15 15
46 45 42 37 31 25 22 22 24 25 24 23 21 19 19 19 21 22 22 19 17 16 16 15 12 9 9 10 12 12 11 10 9 9 9 8 8 7 7 8 9 11 11 11 11 11 13 15 17 18 18 18 19 19 19 19 19 19 19 18 17 15 14 13 13 14 14 14 14
43 44 42 39 33 27 22 21 22 24 24 24 23 21 20 19 20 22 23 23 23 23 23 22 20 16 12 10 10 9 8 8 8 8 8 9 8 7 6 5 6 7 7 8 9 11 13 16 18 19 19 19 19 19 18 18 18 18 18 18 16 14 14 13 14 14 14 14 14
39 39 38 36 33 29 26 23 22 22 22 22 23 23 22 21 20 21 22 25 26 27 27 27 26 24 20 15 12 9 7 6 6 7 9 10 11 10 9 7 5 4 5 8 10 13 16 18 19 20 20 19 17 16 15 17 18 19 19 18 16 15 15 15 15 15 15 14 14
34 34 33 32 30 29 28 27 25 24 23 22 22 22 24 24 23 21 20 22 25 27 29 30 30 28 26 23 19 16 12 10 9 9 10 13 15 16 15 13 9 7 7 9 12 15 18 20 20 20 19 17 15 14 14 16 18 19 19 18 17 17 17 17 16 16 15 14 14
30 30 30 29 29 29 29 30 30 29 27 24 21 20 22 25 25 22 20 21 24 26 28 29 28 26 23 22 22 22 20 18 16 16 16 18 20 22 23 23 21 18 15 14 14 16 18 20 20 18 16 15 14 14 16 17 19 20 20 19 18 18 17 17 17 16 15 14 14
27 29 30 30 30 31 32 33 33 33 32 28 22 19 19 23 25 24 23 22 22 23 23 22 20 17 15 15 17 19 21 23 23 23 24 25 26 27 30 31 32 31 29 25 21 19 19 20 19 17 15 14 15 17 20 22 23 23 22 20 19 18 17 17 17 16 15 15 15
23 26 28 29 30 31 32 31 31 32 30 27 22 19 19 21 24 26 25 24 22 21 19 16 13 11 10 11 12 14 17 19 22 25 28 30 31 32 34 35 37 38 38 36 30 25 22 21 19 17 16 17 19 22 25 27 27 25 23 20 19 18 18 17 17 16 16 16 17
20 21 23 24 25 26 26 25 25 25 25 24 22 20 19 20 24 27 28 28 27 28 28 27 22 19 17 16 15 14 15 17 20 24 28 32 34 35 37 37 37 37 39 40 37 30 25 22 20 18 18 21 24 28 29 29 27 24 22 20 19 18 18 18 18 17 17 18 19
18 18 18 18 19 19 19 20 21 22 22 22 20 19 18 19 23 27 31 32 31 33 36 36 34 31 28 25 20 17 18 21 23 26 29 32 35 37 39 39 38 36 37 40 37 32 28 24 22 21 23 26 29 31 30 27 25 24 22 20 19 19 19 19 19 19 20 20 20
15 14 13 13 13 14 15 16 17 17 17 17 16 16 17 20 24 27 29 31 30 30 32 33 33 32 32 31 26 23 23 24 26 28 31 34 35 36 37 37 38 37 37 37 35 32 29 26 25 26 27 30 32 31 29 26 25 24 23 21 20 20 20 20 21 21 21 20 18
12 12 12 12 13 13 14 14 13 13 13 14 15 17 20 23 24 25 25 26 26 27 27 28 29 30 32 33 32 30 29 29 30 32 34 34 33 33 32 32 33 33 33 32 31 31 30 29 29 30 31 32 32 30 28 27 27 26 24 22 21 21 21 21 22 21 20 17 16
9 11 12 14 15 15 15 15 14 14 14 16 18 20 22 23 23 22 22 22 23 24 25 26 28 29 31 33 34 34 34 34 34 34 32 31 29 27 26 26 26 26 27 28 29 30 30 31 33 33 33 33 31 30 28 28 28 27 24 22 21 21 21 21 21 20 18 17 16
9 11 13 15 16 17 17 17 16 16 17 18 20 20 20 20 20 20 20 21 21 22 23 24 25 27 28 30 32 33 34 34 33 31 29 26 24 23 22 22 22 23 24 26 28 29 31 33 34 34 33 33 31 29 29 28 28 26 23 21 20 20 20 20 19 19 18 18 17
11 12 14 17 17 17 17 17 18 18 18 19 19 19 19 18 18 19 19 20 20 20 21 21 22 23 25 26 29 31 32 32 30 28 25 23 22 21 20 21 21 22 24 26 28 30 32 33 34 34 34 32 31 29 28 28 26 23 20 19 19 19 18 18 17 17 17 17 17
15 16 17 18 19 19 19 19 19 19 20 20 20 20 19 18 18 18 18 18 19 19 19 19 20 21 23 25 27 29 30 29 27 25 23 21 21 21 20 20 21 22 23 25 27 29 31 32 33 33 33 31 29 28 27 25 22 19 18 18 18 17 16 16 16 16 16 16 17
21 21 21 22 22 22 21 21 21 22 22 22 22 20 19 19 18 18 17 18 18 19 19 19 20 22 23 25 27 28 27 26 24 23 22 22 21 21 21 21 21 22 23 24 26 28 30 31 31 31 30 29 27 25 23 20 18 17 17 17 17 16 16 15 16 16 16 17 17
25 25 25 25 25 24 24 24 24 24 24 23 22 21 20 19 18 17 17 17 18 19 20 21 22 23 24 25 26 26 25 24 23 22 22 23 23 23 23 23 23 23 23 24 25 26 27 28 28 28 27 26 24 21 19 17 16 16 16 16 16 16 16 16 16 16 16 17 17
26 26 26 26 26 26 25 25 25 24 23 22 21 21 21 20 19 18 17 17 18 19 21 22 23 24 24 25 26 25 25 24 23 23 24 25 25 25 25 25 25 25 25 24 24 24 24 25 25 25 24 22 19 17 16 15 15 15 15 16 16 16 16 16 16 16 16 17 17
26 27 27 27 26 26 25 24 24 22 21 20 20 20 21 20 20 18 17 17 17 19 20 22 23 24 24 25 25 25 25 25 25 25 25 26 26 26 25 25 24 23 23 22 21 20 20 21 21 20 19 17 15 14 13 14 14 15 15 15 15 16 16 16 16 16 16 16 16
25 26 26 26 25 25 24 23 22 21 20 20 20 20 20 20 20 19 18 17 18 18 20 21 22 23 23 23 23 23 24 24 24 24 24 24 23 22 21 20 19 18 17 17 16 15 15 15 15 15 14 13 12 12 13 14 14 15 15 15 16 16 16 16 15 15 14 14 14
23 23 24 25 25 24 24 23 22 22 21 21 21 20 20 20 19 19 19 18 18 18 19 20 21 21 21 21 21 21 21 21 20 20 20 19 18 17 16 15 14 14 14 14 14 14 14 13 13 12 12 12 12 13 14 14 15 15 15 15 15 15 15 14 14 13 13 12 12
22 22 22 23 23 24 24 24 24 23 23 22 22 21 20 20 20 20 19 19 19 19 19 20 20 20 20 20 19 19 18 18 17 16 16 15 15 14 14 14 14 14 15 15 15 14 13 13 12 12 13 14 15 15 16 16 15 15 15 15 14 14 13 13 12 12 12 12 12
20 20 21 21 21 22 23 23 23 23 23 22 21 21 21 21 21 20 20 20 19 19 20 20 20 20 20 19 19 18 17 16 15 15 14 14 14 15 15 16 16 16 16 15 15 14 13 13 13 13 15 16 17 17 17 16 15 15 15 14 14 13 13 12 12 12 12 12 13
19 19 20 19 19 19 20 21 22 22 21 21 21 21 21 21 21 21 21 20 20 20 20 20 20 20 20 19 18 17 16 16 16 15 16 16 16 16 16 16 16 16 15 15 14 14 14 14 15 16 16 17 17 17 16 15 15 14 14 13 13 12 12 12 12 12 12 12 13
16 17 17 17 17 17 17 18 19 19 19 19 20 20 21 21 21 21 21 21 21 21 21 21 20 20 19 18 17 17 16 16 16 16 17 17 17 16 16 16 15 15 15 14 15 15 15 16 17 17 17 16 16 15 15 14 14 13 13 12 12 11 11 11 11 12 12 13 13
13 13 13 14 14 14 15 15 16 17 17 18 18 19 20 21 21 21 21 21 21 21 20 20 20 19 18 18 17 17 16 16 16 16 16 16 15 15 15 14 14 14 14 14 14 15 16 16 16 15 15 14 14 13 13 13 12 12 12 11 11 11 11 11 11 12 12 13 13
12 12 12 12 12 13 14 15 16 17 17 18 19 20 20 21 21 21 21 20 20 19 19 19 18 18 17 17 16 15 15 15 15 15 14 14 14 13 13 13 13 13 13 13 13 14 14 14 13 12 12 12 12 12 12 11 11 11 11 11 11 11 11 11 11 12 12 13 13
14 14 14 13 13 14 15 16 18 19 20 20 21 21 21 21 21 20 19 18 18 17 17 16 16 15 15 14 14 14 14 14 14 13 13 13 12 12 12 12 12 12 12 12 12 12 12 12 11 11 11 11 11 11 11 11 11 11 11 11 11 11 11 12 12 12 12 12 13
16 16 17 16 17 17 17 18 19 20 21 21 21 21 20 20 19 18 17 16 15 14 14 13 13 13 13 13 13 13 13 13 12 12 12 11 11 11 11 11 11 11 12 12 12 12 12 11 11 11 11 11 12 12 12 11 11 11 11 11 11 11 12 12 12 12 12 12 12
16 17 17 18 19 19 19 20 20 20 19 19 18 18 17 16 15 14 14 13 12 12 12 12 12 12 12 12 12 12 12 11 11 11 10 10 10 11 11 11 12 12 12 12 12 12 12 12 12 12 12 12 12 12 12 12 11 11 11 11 11 11 12 12 12 12 12 12 12
16 16 17 17 18 18 18 18 17 17 16 15 14 13 13 12 12 11 11 11 11 11 11 11 11 11 11 11 11 11 11 11 11 11 11 11 11 12 12 12 13 13 13 13 13 13 13 12 12 12 12 12 12 12 12 12 11 11 11 11 11 11 12 12 12 12 12 12 12
14 15 15 15 15 15 15 14 14 13 12 11 11 11 11 10 10 10 10 10 11 11 11 11 11 11 11 11 11 11 11 11 12 12 12 12 13 13 13 14 14 14 14 13 13 13 13 12 11 11 11 12 12 12 12 11 11 11 11 11 11 12 12 12 12 12 12 12 11
13 13 12 12 12 12 12 11 11 10 10 10 10 10 10 10 10 10 10 10 10 10 10 10 10 10 10 11 11 12 12 13 13 13 14 14 14 14 14 14 14 14 13 13 13 12 12 11 11 11 11 11 11 11 11 11 11 11 11 11 12 12 12 12 12 11 11 11 11
11 11 11 10 10 10 10 10 10 9 9 9 9 9 9 9 9 9 9 9 9 9 9 10 10 10 11 11 12 12 13 13 14 14 15 15 15 15 15 14 13 13 12 12 12 12 11 11 11 10 11 11 11 11 11 11 11 11 11 12 12 12 12 12 12 11 11 11 10
11 11 10 10 9 9 9 9 9 9 8 8 8 8 7 7 7 7 8 8 8 8 9 9 9 10 10 11 12 12 13 13 14 14 15 15 15 14 14 13 12 12 12 11 11 11 11 11 10 10 10 10 10 11 11 11 12 12 12 12 12 13 12 12 12 12 11 11 10
10 10 10 9 9 9 9 8 9 8 8 8 7 7 7 7 7 7 7 7 7 8 8 9 9 10 10 11 11 12 12 12 13 13 13 13 13 13 12 12 12 11 11 11 11 11 11 11 10 10 10 11 11 11 12 12 12 13 13 13 13 13 13 12 12 12 11 11 11
9 9 9 9 8 8 8 8 8 8 7 7 7 7 7 7 7 7 7 7 7 7 8 9 9 9 10 10 10 10 11 11 12 12 12 12 12 11 11 11 11 11 11 11 11 11 11 11 11 11 11 11 12 12 12 13 13 13 13 13 13 12 12 12 12 12 12 11 11
Wind_Direction
226 224 223 223 224 226 228 229 228 225 218 209 201 194 189 187 187 189 192 196 198 199 201 202 204 204 205 205 204 203 203 205 207 211 214 218 222 226 229 230 231 231 229 227 224 221 219 217 219 226 235 240 239 231 222 220 226 228 227 225 224 223 221 217 213 213 219 225 231
227 226 224 224 226 228 228 228 226 224 222 220 219 217 212 206 198 194 194 196 197 199 203 206 203 200 197 197 196 197 199 203 209 216 221 224 227 228 230 231 230 229 226 224 221 218 216 217 223 233 241 244 239 228 222 225 228 228 227 227 225 222 217 211 211 217 222 227 231
227 227 226 225 227 228 228 227 226 227 230 232 234 235 232 226 217 209 202 199 197 201 210 215 206 195 190 192 194 195 196 197 203 211 219 225 229 232 233 233 231 227 224 222 222 221 219 222 230 239 242 238 229 222 224 230 230 228 225 225 224 221 218 216 220 224 226 228 230
226 228 228 228 228 227 226 226 227 230 234 237 238 238 237 235 229 221 213 204 201 206 214 218 210 196 189 190 194 196 196 195 197 203 212 220 227 232 234 234 230 226 223 223 228 229 229 229 235 238 234 226 220 224 230 233 233 231 230 229 228 226 225 225 227 228 228 227 229
223 226 229 230 228 224 222 223 228 233 237 238 238 236 235 233 231 227 220 213 208 212 218 223 221 211 194 187 190 192 192 191 193 199 206 212 216 221 226 228 227 225 227 231 238 243 242 237 236 234 227 219 218 223 230 233 233 233 233 234 233 232 229 228 227 227 227 227 229
219 222 226 228 227 223 219 222 231 237 240 240 238 237 235 232 229 226 223 219 216 218 222 226 228 225 215 200 191 188 186 185 188 195 201 207 209 210 213 220 226 232 240 249 259 267 264 253 243 236 228 219 215 218 225 231 233 233 233 233 234 233 230 227 226 226 227 228 230
216 218 221 224 226 226 226 227 232 237 241 242 241 240 238 235 230 226 223 221 220 221 224 227 229 231 230 229 224 218 212 206 200 202 206 212 218 223 226 229 235 253 267 271 277 282 279 268 254 243 233 225 217 217 224 232 235 236 235 233 233 232 231 230 228 228 228 230 233
213 216 219 222 226 230 233 235 237 238 241 243 244 242 239 236 233 228 220 215 215 218 221 224 227 230 233 237 241 243 244 242 238 235 233 232 233 236 239 243 249 262 274 275 274 275 275 271 259 246 235 229 225 227 232 236 236 238 237 236 234 233 234 234 233 232 233 235 238
214 217 221 224 228 232 236 240 243 244 245 246 247 243 236 229 227 220 210 203 206 211 215 218 221 225 231 237 244 248 251 253 254 255 255 254 252 251 250 252 254 258 264 269 268 265 262 261 255 245 235 232 233 237 240 238 236 236 236 236 234 234 234 235 235 235 237 239 242
217 221 224 227 231 235 239 243 246 248 248 246 243 236 227 220 215 210 203 198 200 203 206 209 212 218 228 239 247 252 254 255 256 258 260 262 262 261 261 260 259 259 260 263 265 261 253 248 243 239 235 235 237 240 240 238 236 235 234 233 233 233 234 235 236 238 240 242 244
218 221 224 227 231 234 238 240 241 241 238 234 229 223 219 216 213 210 208 207 207 207 209 212 218 226 240 255 263 265 263 260 260 261 262 263 263 264 264 264 263 262 261 261 262 258 248 237 231 229 230 233 235 237 237 236 234 232 231 230 230 233 235 237 239 241 243 245 246
213 215 217 220 223 225 226 225 221 217 214 212 211 212 215 218 220 220 221 223 224 228 233 237 240 244 249 258 269 278 280 278 274 270 267 265 262 262 261 261 260 260 260 261 259 253 243 231 223 221 224 230 234 235 235 233 231 229 228 228 231 235 238 239 242 244 246 246 246
202 203 205 207 208 207 204 198 193 192 194 198 204 207 212 218 224 227 228 230 232 234 236 239 240 242 244 248 259 275 286 287 282 276 269 265 262 260 259 259 257 255 256 258 254 245 233 224 217 216 222 230 235 235 234 231 229 228 228 230 235 240 242 243 244 245 246 246 247
178 179 181 184 186 187 185 182 183 187 192 199 205 210 213 218 223 226 228 231 234 235 234 233 233 235 237 241 249 262 273 275 271 266 263 261 260 258 257 256 255 254 252 249 241 231 221 215 212 214 222 231 236 236 233 230 229 228 230 234 240 243 244 245 245 246 246 247 250
149 156 160 164 170 175 178 181 184 189 195 202 209 214 218 221 223 224 226 229 234 236 235 231 229 230 232 235 241 249 254 255 254 254 255 255 255 254 253 251 249 247 241 232 222 213 209 209 211 216 224 234 237 236 232 230 229 230 233 238 242 244 245 246 246 248 250 253 258
144 163 171 173 174 177 179 181 183 187 193 202 210 216 220 222 224 225 227 231 235 238 237 235 233 230 229 230 233 236 238 240 243 245 247 247 247 244 241 238 234 228 220 210 204 202 205 209 212 218 227 235 237 235 231 230 230 232 236 241 244 245 246 248 249 251 254 258 263
155 179 189 189 186 184 184 184 186 190 197 204 212 217 221 224 226 229 232 235 237 238 238 236 233 229 225 223 223 226 229 232 234 236 237 236 234 230 224 218 212 205 199 196 196 200 205 210 214 221 229 235 235 233 231 230 231 235 240 245 247 249 250 252 253 253 254 257 261
165 184 197 200 198 194 192 191 193 197 203 210 215 219 221 223 226 230 233 234 234 233 232 230 228 224 221 219 220 221 222 223 224 225 225 224 221 216 210 204 199 195 193 193 197 202 206 211 217 224 230 234 233 231 231 232 234 239 245 249 251 253 255 256 256 254 252 254 258
180 188 198 203 203 202 201 200 201 204 210 215 218 218 218 219 222 224 226 225 223 222 220 220 219 219 218 217 217 216 215 214 215 216 217 216 214 210 206 202 200 198 198 199 202 206 210 215 221 227 230 231 230 231 232 235 240 245 250 253 255 256 257 258 257 256 255 256 259
197 198 201 203 205 205 205 205 207 209 213 217 218 217 215 214 214 215 213 211 209 208 208 209 210 211 211 211 210 209 209 209 211 213 215 215 213 209 206 205 205 206 208 209 211 214 217 221 225 228 228 227 229 231 235 241 248 253 255 256 257 258 259 259 259 259 260 261 263
205 205 205 205 205 205 206 207 209 211 214 217 217 215 213 211 210 208 205 202 200 199 200 202 204 205 205 206 206 206 207 209 212 214 216 216 213 210 208 208 210 212 215 217 219 221 223 225 225 225 225 224 227 232 239 247 253 256 257 257 259 260 261 262 262 263 264 265 266
208 207 207 206 205 205 205 206 208 210 212 214 214 213 211 210 209 207 205 201 198 197 198 200 202 203 204 205 206 207 209 211 213 215 217 216 214 211 209 209 211 214 217 220 222 224 224 224 223 222 222 223 227 233 241 248 252 255 256 258 260 261 262 263 263 264 265 266 266
208 208 207 206 205 205 205 205 206 208 209 210 211 210 210 209 209 209 207 205 202 199 199 200 201 203 204 206 207 208 209 211 212 214 215 215 214 211 209 208 209 211 215 218 222 224 225 224 223 223 224 226 230 236 243 248 251 254 256 257 259 260 261 261 261 262 262 263 264
208 208 207 207 206 205 205 205 206 207 208 209 210 210 210 210 209 209 209 207 204 202 200 200 201 202 204 205 208 209 209 209 210 211 212 213 213 211 210 210 211 215 220 226 232 236 237 235 234 234 234 236 239 244 248 252 254 256 256 257 257 257 257 257 258 259 261 262 265
208 207 207 207 207 206 206 206 207 207 208 209 210 210 210 210 209 209 208 206 204 201 200 199 199 200 202 204 205 206 206 207 208 209 210 210 210 211 214 218 224 230 236 242 247 250 252 251 248 247 247 248 250 254 257 258 258 258 257 257 256 256 256 258 260 263 266 270 273
206 206 207 209 209 209 209 208 208 208 208 209 209 209 210 210 209 207 205 203 201 198 197 196 195 196 198 199 200 202 203 206 209 211 211 210 210 213 218 224 230 236 240 243 246 248 250 250 250 249 250 251 253 256 258 260 260 259 259 260 261 262 264 266 270 273 277 281 285
206 207 209 210 211 212 212 212 211 210 210 209 209 209 210 209 207 204 201 198 196 194 192 191 191 191 193 196 198 201 205 209 213 215 215 214 214 216 221 226 231 234 237 239 240 242 243 244 245 246 246 245 247 251 254 256 257 258 260 263 266 269 272 275 279 282 285 287 289
211 210 210 210 211 212 213 213 212 212 211 210 209 209 208 205 202 198 195 193 192 190 189 190 190 192 195 198 202 206 209 212 214 215 216 216 217 219 222 226 228 231 232 233 234 234 236 238 240 241 242 242 244 246 250 252 255 257 260 264 267 270 273 276 279 282 284 286 287
211 210 208 206 206 207 209 209 208 207 207 206 205 203 201 197 194 192 191 190 189 190 191 193 195 198 201 204 207 210 211 211 213 214 215 217 218 219 221 223 225 226 227 227 227 228 230 233 235 238 239 240 242 244 247 250 253 256 259 262 265 268 271 274 277 279 281 283 284
200 198 196 194 194 195 196 197 196 196 195 195 194 192 190 188 187 187 188 189 190 192 196 198 201 203 205 208 209 209 208 208 210 212 214 215 217 218 219 220 222 224 226 226 226 227 229 231 234 236 238 241 243 246 250 253 256 258 261 263 265 268 271 273 276 278 280 282 284
180 179 177 176 178 180 181 181 182 182 182 182 182 182 182 183 184 186 188 191 193 197 199 202 203 204 205 206 206 205 205 206 208 210 212 214 215 216 218 220 223 226 229 231 232 233 234 235 237 239 243 246 251 254 258 260 262 263 264 265 267 270 272 275 277 280 282 284 285
171 169 169 170 172 175 177 176 175 175 176 177 178 180 182 184 187 189 192 194 196 198 200 202 202 202 203 203 202 203 204 206 208 210 212 213 215 217 220 223 226 230 234 237 239 241 242 243 245 247 250 254 257 260 262 264 265 265 266 268 270 272 275 277 280 283 285 287 287
173 173 173 173 174 176 177 177 176 176 176 178 180 183 185 188 190 192 194 196 197 199 200 200 200 200 200 200 201 203 205 207 209 211 212 214 217 219 223 226 229 233 236 239 242 244 246 247 249 251 252 254 256 258 259 261 262 264 265 267 269 272 275 278 282 284 286 288 288
179 178 177 176 175 175 176 177 178 179 180 182 184 186 188 189 191 192 194 195 196 197 197 198 198 198 199 200 202 204 207 209 211 212 214 217 220 223 225 229 231 234 236 239 241 243 245 246 247 248 249 251 252 253 255 256 258 259 261 264 267 270 274 278 281 283 285 286 287
181 181 180 179 178 178 178 179 181 183 185 186 187 187 188 188 188 189 190 191 193 194 195 196 197 198 200 202 204 206 210 212 214 215 217 219 222 224 227 229 232 234 236 237 239 240 241 242 243 244 246 247 249 251 252 253 255 257 260 263 266 270 274 277 280 282 283 285 285
182 183 184 185 184 184 184 185 185 186 186 186 186 186 186 186 186 186 187 188 189 191 192 194 196 198 201 204 207 210 212 215 216 218 219 221 222 225 227 229 231 233 234 235 237 238 239 240 240 241 243 245 248 250 252 254 257 260 264 266 269 272 274 277 279 280 281 282 283
182 185 187 189 189 188 187 186 185 184 183 183 184 185 185 184 185 186 187 188 190 191 193 195 198 201 204 208 211 214 216 217 219 220 221 222 223 224 226 228 230 231 233 234 235 237 239 239 239 240 242 245 249 253 256 260 263 266 269 272 273 274 276 277 277 278 278 279 281
177 179 181 183 183 183 183 183 182 182 184 186 188 188 188 188 189 191 192 194 196 197 199 202 204 207 210 212 215 218 219 220 220 221 222 222 222 223 225 227 228 230 232 233 235 238 240 241 242 242 245 249 254 259 264 268 271 273 274 275 276 276 276 276 276 275 275 276 277
171 172 173 174 175 177 179 182 183 186 189 193 196 198 198 197 199 200 203 204 205 207 209 211 213 215 216 218 219 221 221 221 221 220 221 221 222 223 224 226 228 230 232 235 237 240 244 246 248 249 252 256 262 267 272 275 276 277 277 276 276 276 276 275 275 274 273 272 273
169 169 170 172 175 178 182 185 189 192 195 199 204 208 210 210 211 212 213 214 216 217 219 221 222 223 224 223 223 223 223 222 222 221 222 223 224 224 225 227 229 232 235 238 241 245 249 253 255 257 260 264 268 272 275 277 278 277 277 276 276 276 276 276 274 273 271 270 269
171 172 173 176 179 183 188 193 197 200 202 205 209 213 215 216 217 219 220 221 223 225 227 229 231 231 231 230 228 228 227 226 226 226 227 228 228 229 230 232 234 237 241 245 248 251 254 257 260 262 265 268 271 274 276 277 277 276 275 275 275 275 275 275 274 272 269 268 267